Location: Gleizolles
(44.4833°N, 6.7667°E)
Time: 10:56:53
(UTC+00:00)

RS-15 - Visible Passes

Search period start: 30 November 2022 00:00
Search period end: 10 December 2022 00:00
Orbit: 1882 x 2163 km, 64.8° (Epoch: 29 November)

Date Brightness Start Highest point End Pass type
(mag) Time Alt. Az. Time Alt. Az. Time Alt. Az.
30 Nov 9.0 16:59:14 10° NW 17:09:34 29° N 17:17:37 15° ENE visible
30 Nov 8.3 19:14:00 10° NW 19:25:23 51° NNE 19:25:23 51° NNE visible
30 Nov 9.1 21:27:01 10° NW 21:33:09 35° NW 21:33:09 35° NW visible
01 Dec 9.1 16:22:15 10° WNW 16:32:30 29° N 16:42:34 10° ENE visible
01 Dec 8.4 18:37:45 10° NW 18:49:20 43° NNE 18:50:47 42° NE visible
01 Dec 8.7 20:50:48 10° NW 20:58:33 47° NW 20:58:33 47° NW visible
01 Dec 10.0 23:05:42 10° WNW 23:06:19 11° WNW 23:06:19 11° WNW visible
02 Dec 8.6 18:01:23 10° NW 18:12:37 38° NNE 18:16:13 32° ENE visible
02 Dec 8.3 20:14:38 10° NW 20:23:59 60° NNW 20:23:59 60° NNW visible
02 Dec 9.7 22:28:35 10° NW 22:31:45 18° WNW 22:31:45 18° WNW visible
03 Dec 8.8 17:24:54 10° NW 17:35:46 34° NNE 17:41:42 23° ENE visible
03 Dec 8.0 19:38:30 10° NW 19:49:28 69° N 19:49:28 69° N visible
03 Dec 9.4 21:51:55 10° NW 21:57:15 26° WNW 21:57:15 26° WNW visible
04 Dec 8.9 16:48:17 10° NW 16:58:50 31° NNE 17:07:15 15° ENE visible
04 Dec 8.0 19:02:20 10° NW 19:14:30 62° NE 19:15:02 61° ENE visible
04 Dec 9.0 21:15:28 10° NW 21:22:48 37° WNW 21:22:48 37° WNW visible
05 Dec 9.0 16:11:28 10° NW 16:21:49 29° N 16:31:54 10° ENE visible
05 Dec 8.2 18:26:08 10° NW 18:38:05 52° NE 18:40:38 46° ENE visible
05 Dec 8.5 20:39:09 10° NW 20:48:25 52° WNW 20:48:25 52° WNW visible
06 Dec 8.4 17:49:54 10° NW 18:01:31 44° NE 18:06:20 32° E visible
06 Dec 8.1 20:02:56 10° NW 20:14:07 71° W 20:14:07 71° W visible
06 Dec 9.8 22:18:01 10° WNW 22:21:55 16° WNW 22:21:55 16° WNW visible
07 Dec 8.6 17:13:33 10° NW 17:24:49 39° NNE 17:32:07 21° E visible
07 Dec 7.9 19:26:46 10° NW 19:39:02 89° SW 19:39:55 80° SSE visible
07 Dec 9.4 21:40:49 10° NW 21:47:44 25° W 21:47:44 25° W visible
08 Dec 8.7 16:37:05 10° NW 16:48:00 34° NNE 16:58:02 11° E visible
08 Dec 7.9 18:50:37 10° NW 19:02:55 76° NE 19:05:51 57° ESE visible
08 Dec 9.0 21:04:06 10° NW 21:13:40 34° W 21:13:40 34° W visible
09 Dec 8.0 18:14:27 10° NW 18:26:39 64° NE 18:31:56 38° ESE visible
09 Dec 8.7 20:27:37 10° NW 20:38:41 45° WSW 20:39:46 44° WSW visible
